#Datum;Uhrzeit;WR;Pac;DaySum;Status;WR;Pac;DaySum;Status;Pdc1;Udc;Temp;WR;Pac;DaySum;Status;Pdc1;Udc;Temp;WR;Pac;DaySum;Status;Pdc1;Udc;Temp;WR;Pac;DaySum;Status;Pdc1;Pdc2;Udc1;Udc2;Temp;WR;Pac;DaySum;Status;Pdc1;Pdc2;Udc1;Udc2;Temp;WR;Pac;DaySum;Status;Pdc1;Udc;Temp;WR;Pac;DaySum;Status;Pdc1;Udc;Temp;WR;Pac;DaySum;Status;Pdc1;Udc;Temp
27.12.17;23:55:00;1;458;12035;0;2;0;4525;0;0;0;0;3;0;2838;0;0;0;0;4;0;3448;0;0;0;0;5;0;9634;0;0;0;0;0;0;6;0;6713;0;0;0;0;0;0;7;0;6442;0;0;0;0;8;0;6337;0;0;0;0;9;0;3403;0;0;0;0
27.12.17;23:50:00;1;460;11997;0;2;0;4525;0;0;0;0;3;0;2838;0;0;0;0;4;0;3448;0;0;0;0;5;0;9634;0;0;0;0;0;0;6;0;6713;0;0;0;0;0;0;7;0;6442;0;0;0;0;8;0;6337;0;0;0;0;9;0;3403;0;0;0;0
27.12.17;23:45:00;1;639;11958;0;2;0;4525;0;0;0;0;3;0;2838;0;0;0;0;4;0;3448;0;0;0;0;5;0;9634;0;0;0;0;0;0;6;0;6713;0;0;0;0;0;0;7;0;6442;0;0;0;0;8;0;6337;0;0;0;0;9;0;3403;0;0;0;0
27.12.17;23:40:00;1;693;11893;0;2;0;4525;0;0;0;0;3;0;2838;0;0;0;0;4;0;3448;0;0;0;0;5;0;9634;0;0;0;0;0;0;6;0;6713;0;0;0;0;0;0;7;0;6442;0;0;0;0;8;0;6337;0;0;0;0;9;0;3403;0;0;0;0
27.12.17;23:35:00;1;498;11849;0;2;0;4525;0;0;0;0;3;0;2838;0;0;0;0;4;0;3448;0;0;0;0;5;0;9634;0;0;0;0;0;0;6;0;6713;0;0;0;0;0;0;7;0;6442;0;0;0;0;8;0;6337;0;0;0;0;9;0;3403;0;0;0;0
27.12.17;23:30:00;1;496;11807;0;2;0;4525;0;0;0;0;3;0;2838;0;0;0;0;4;0;3448;0;0;0;0;5;0;9634;0;0;0;0;0;0;6;0;6713;0;0;0;0;0;0;7;0;6442;0;0;0;0;8;0;6337;0;0;0;0;9;0;3403;0;0;0;0
27.12.17;23:25:00;1;864;11766;0;2;0;4525;0;0;0;0;3;0;2838;0;0;0;0;4;0;3448;0;0;0;0;5;0;9634;0;0;0;0;0;0;6;0;6713;0;0;0;0;0;0;7;0;6442;0;0;0;0;8;0;6337;0;0;0;0;9;0;3403;0;0;0;0
27.12.17;23:20:00;1;479;11697;0;2;0;4525;0;0;0;0;3;0;2838;0;0;0;0;4;0;3448;0;0;0;0;5;0;9634;0;0;0;0;0;0;6;0;6713;0;0;0;0;0;0;7;0;6442;0;0;0;0;8;0;6337;0;0;0;0;9;0;3403;0;0;0;0
27.12.17;23:15:00;1;467;11657;0;2;0;4525;0;0;0;0;3;0;2838;0;0;0;0;4;0;3448;0;0;0;0;5;0;9634;0;0;0;0;0;0;6;0;6713;0;0;0;0;0;0;7;0;6442;0;0;0;0;8;0;6337;0;0;0;0;9;0;3403;0;0;0;0
27.12.17;23:10:00;1;459;11617;0;2;0;4525;0;0;0;0;3;0;2838;0;0;0;0;4;0;3448;0;0;0;0;5;0;9634;0;0;0;0;0;0;6;0;6713;0;0;0;0;0;0;7;0;6442;0;0;0;0;8;0;6337;0;0;0;0;9;0;3403;0;0;0;0
27.12.17;23:05:00;1;665;11559;0;2;0;4525;0;0;0;0;3;0;2838;0;0;0;0;4;0;3448;0;0;0;0;5;0;9634;0;0;0;0;0;0;6;0;6713;0;0;0;0;0;0;7;0;6442;0;0;0;0;8;0;6337;0;0;0;0;9;0;3403;0;0;0;0
27.12.17;23:00:00;1;461;11510;0;2;0;4525;0;0;0;0;3;0;2838;0;0;0;0;4;0;3448;0;0;0;0;5;0;9634;0;0;0;0;0;0;6;0;6713;0;0;0;0;0;0;7;0;6442;0;0;0;0;8;0;6337;0;0;0;0;9;0;3403;0;0;0;0
27.12.17;22:55:00;1;460;11472;0;2;0;4525;0;0;0;0;3;0;2838;0;0;0;0;4;0;3448;0;0;0;0;5;0;9634;2;0;0;0;0;0;6;0;6713;2;0;0;0;0;0;7;0;6442;0;0;0;0;8;0;6337;0;0;0;0;9;0;3403;0;0;0;0
27.12.17;22:50:00;1;865;11433;0;2;0;4525;0;0;0;0;3;0;2838;0;0;0;0;4;0;3448;0;0;0;0;5;0;9634;2;0;0;0;0;0;6;0;6713;2;0;0;0;0;0;7;0;6442;0;0;0;0;8;0;6337;0;0;0;0;9;0;3403;0;0;0;0
27.12.17;22:45:00;1;490;11364;0;2;0;4525;0;0;0;0;3;0;2838;0;0;0;0;4;0;3448;0;0;0;0;5;0;9634;2;0;0;0;0;0;6;0;6713;2;0;0;0;0;0;7;0;6442;0;0;0;0;8;0;6337;0;0;0;0;9;0;3403;0;0;0;0
27.12.17;22:40:00;1;493;11323;0;2;0;4525;0;0;0;0;3;0;2838;0;0;0;0;4;0;3448;0;0;0;0;5;0;9634;2;0;0;0;0;0;6;0;6713;2;0;0;0;0;0;7;0;6442;0;0;0;0;8;0;6337;0;0;0;0;9;0;3403;0;0;0;0
27.12.17;22:35:00;1;720;11282;0;2;0;4525;0;0;0;0;3;0;2838;0;0;0;0;4;0;3448;0;0;0;0;5;0;9634;2;0;0;0;0;0;6;0;6713;2;0;0;0;0;0;7;0;6442;0;0;0;0;8;0;6337;0;0;0;0;9;0;3403;0;0;0;0
27.12.17;22:30:00;1;764;11212;0;2;0;4525;0;0;0;0;3;0;2838;0;0;0;0;4;0;3448;0;0;0;0;5;0;9634;2;0;0;0;0;0;6;0;6713;2;0;0;0;0;0;7;0;6442;0;0;0;0;8;0;6337;0;0;0;0;9;0;3403;0;0;0;0
27.12.17;22:25:00;1;604;11161;0;2;0;4525;0;0;0;0;3;0;2838;0;0;0;0;4;0;3448;0;0;0;0;5;0;9634;2;0;0;0;0;0;6;0;6713;2;0;0;0;0;0;7;0;6442;0;0;0;0;8;0;6337;0;0;0;0;9;0;3403;0;0;0;0
27.12.17;22:20:00;1;694;11109;0;2;0;4525;0;0;0;0;3;0;2838;0;0;0;0;4;0;3448;0;0;0;0;5;0;9634;2;0;0;0;0;0;6;0;6713;2;0;0;0;0;0;7;0;6442;0;0;0;0;8;0;6337;0;0;0;0;9;0;3403;0;0;0;0
27.12.17;22:15:00;1;1089;11051;0;2;0;4525;0;0;0;0;3;0;2838;0;0;0;0;4;0;3448;0;0;0;0;5;0;9634;2;0;0;0;0;0;6;0;6713;2;0;0;0;0;0;7;0;6442;0;0;0;0;8;0;6337;0;0;0;0;9;0;3403;0;0;0;0
27.12.17;22:10:00;1;1551;10964;0;2;0;4525;0;0;0;0;3;0;2838;0;0;0;0;4;0;3448;0;0;0;0;5;0;9634;2;0;0;0;0;0;6;0;6713;2;0;0;0;0;0;7;0;6442;0;0;0;0;8;0;6337;0;0;0;0;9;0;3403;0;0;0;0
27.12.17;22:05:00;1;2443;10803;0;2;0;4525;0;0;0;0;3;0;2838;0;0;0;0;4;0;3448;0;0;0;0;5;0;9634;2;0;0;0;0;0;6;0;6713;2;0;0;0;0;0;7;0;6442;0;0;0;0;8;0;6337;0;0;0;0;9;0;3403;0;0;0;0
27.12.17;22:00:00;1;875;10634;0;2;0;4525;0;0;0;0;3;0;2838;0;0;0;0;4;0;3448;0;0;0;0;5;0;9634;2;0;0;0;0;0;6;0;6713;2;0;0;0;0;0;7;0;6442;0;0;0;0;8;0;6337;0;0;0;0;9;0;3403;0;0;0;0
27.12.17;21:55:00;1;999;10551;0;2;0;4525;0;0;0;0;3;0;2838;0;0;0;0;4;0;3448;0;0;0;0;5;0;9634;2;0;0;0;0;0;6;0;6713;2;0;0;0;0;0;7;0;6442;0;0;0;0;8;0;6337;0;0;0;0;9;0;3403;0;0;0;0
27.12.17;21:50:00;1;668;10494;0;2;0;4525;0;0;0;0;3;0;2838;0;0;0;0;4;0;3448;0;0;0;0;5;0;9634;2;0;0;0;0;0;6;0;6713;2;0;0;0;0;0;7;0;6442;0;0;0;0;8;0;6337;0;0;0;0;9;0;3403;0;0;0;0
27.12.17;21:45:00;1;664;10438;0;2;0;4525;0;0;0;0;3;0;2838;0;0;0;0;4;0;3448;0;0;0;0;5;0;9634;2;0;0;0;0;0;6;0;6713;2;0;0;0;0;0;7;0;6442;0;0;0;0;8;0;6337;0;0;0;0;9;0;3403;0;0;0;0
27.12.17;21:40:00;1;1090;10382;0;2;0;4525;0;0;0;0;3;0;2838;0;0;0;0;4;0;3448;0;0;0;0;5;0;9634;2;0;0;0;0;0;6;0;6713;2;0;0;0;0;0;7;0;6442;0;0;0;0;8;0;6337;0;0;0;0;9;0;3403;0;0;0;0
27.12.17;21:35:00;1;629;10296;0;2;0;4525;0;0;0;0;3;0;2838;0;0;0;0;4;0;3448;0;0;0;0;5;0;9634;2;0;0;0;0;0;6;0;6713;2;0;0;0;0;0;7;0;6442;0;0;0;0;8;0;6337;0;0;0;0;9;0;3403;0;0;0;0
27.12.17;21:30:00;1;631;10243;0;2;0;4525;0;0;0;0;3;0;2838;0;0;0;0;4;0;3448;0;0;0;0;5;0;9634;2;0;0;0;0;0;6;0;6713;2;0;0;0;0;0;7;0;6442;0;0;0;0;8;0;6337;0;0;0;0;9;0;3403;0;0;0;0
27.12.17;21:25:00;1;817;10190;0;2;0;4525;0;0;0;0;3;0;2838;0;0;0;0;4;0;3448;0;0;0;0;5;0;9634;2;0;0;0;0;0;6;0;6713;2;0;0;0;0;0;7;0;6442;0;0;0;0;8;0;6337;0;0;0;0;9;0;3403;0;0;0;0
27.12.17;21:20:00;1;1842;10109;0;2;0;4525;0;0;0;0;3;0;2838;0;0;0;0;4;0;3448;0;0;0;0;5;0;9634;2;0;0;0;0;0;6;0;6713;2;0;0;0;0;0;7;0;6442;0;0;0;0;8;0;6337;0;0;0;0;9;0;3403;0;0;0;0
27.12.17;21:15:00;1;717;9991;0;2;0;4525;0;0;0;0;3;0;2838;0;0;0;0;4;0;3448;0;0;0;0;5;0;9634;2;0;0;0;0;0;6;0;6713;2;0;0;0;0;0;7;0;6442;0;0;0;0;8;0;6337;0;0;0;0;9;0;3403;0;0;0;0
27.12.17;21:10:00;1;506;9930;0;2;0;4525;0;0;0;0;3;0;2838;0;0;0;0;4;0;3448;0;0;0;0;5;0;9634;2;0;0;0;0;0;6;0;6713;2;0;0;0;0;0;7;0;6442;0;0;0;0;8;0;6337;0;0;0;0;9;0;3403;0;0;0;0
27.12.17;21:05:00;1;792;9889;0;2;0;4525;0;0;0;0;3;0;2838;0;0;0;0;4;0;3448;0;0;0;0;5;0;9634;2;0;0;0;0;0;6;0;6713;2;0;0;0;0;0;7;0;6442;0;0;0;0;8;0;6337;0;0;0;0;9;0;3403;0;0;0;0
27.12.17;21:00:00;1;336;9827;0;2;0;4525;0;0;0;0;3;0;2838;0;0;0;0;4;0;3448;0;0;0;0;5;0;9634;2;0;0;0;0;0;6;0;6713;2;0;0;0;0;0;7;0;6442;0;0;0;0;8;0;6337;0;0;0;0;9;0;3403;0;0;0;0
27.12.17;20:55:00;1;357;9799;0;2;0;4525;0;0;0;0;3;0;2838;0;0;0;0;4;0;3448;0;0;0;0;5;0;9634;2;0;0;0;0;0;6;0;6713;2;0;0;0;0;0;7;0;6442;0;0;0;0;8;0;6337;0;0;0;0;9;0;3403;0;0;0;0
27.12.17;20:50:00;1;575;9769;0;2;0;4525;0;0;0;0;3;0;2838;0;0;0;0;4;0;3448;0;0;0;0;5;0;9634;2;0;0;0;0;0;6;0;6713;2;0;0;0;0;0;7;0;6442;0;0;0;0;8;0;6337;0;0;0;0;9;0;3403;0;0;0;0
27.12.17;20:45:00;1;706;9714;0;2;0;4525;0;0;0;0;3;0;2838;0;0;0;0;4;0;3448;0;0;0;0;5;0;9634;2;0;0;0;0;0;6;0;6713;2;0;0;0;0;0;7;0;6442;0;0;0;0;8;0;6337;0;0;0;0;9;0;3403;0;0;0;0
27.12.17;20:40:00;1;293;9679;0;2;0;4525;0;0;0;0;3;0;2838;0;0;0;0;4;0;3448;0;0;0;0;5;0;9634;2;0;0;0;0;0;6;0;6713;2;0;0;0;0;0;7;0;6442;0;0;0;0;8;0;6337;0;0;0;0;9;0;3403;0;0;0;0
27.12.17;20:35:00;1;327;9656;0;2;0;4525;0;0;0;0;3;0;2838;0;0;0;0;4;0;3448;0;0;0;0;5;0;9634;2;0;0;0;0;0;6;0;6713;2;0;0;0;0;0;7;0;6442;0;0;0;0;8;0;6337;0;0;0;0;9;0;3403;0;0;0;0
27.12.17;20:30:00;1;735;9628;0;2;0;4525;0;0;0;0;3;0;2838;0;0;0;0;4;0;3448;0;0;0;0;5;0;9634;2;0;0;0;0;0;6;0;6713;2;0;0;0;0;0;7;0;6442;0;0;0;0;8;0;6337;0;0;0;0;9;0;3403;0;0;0;0
27.12.17;20:25:00;1;327;9571;0;2;0;4525;0;0;0;0;3;0;2838;0;0;0;0;4;0;3448;0;0;0;0;5;0;9634;2;0;0;0;0;0;6;0;6713;2;0;0;0;0;0;7;0;6442;0;0;0;0;8;0;6337;0;0;0;0;9;0;3403;0;0;0;0
27.12.17;20:20:00;1;327;9544;0;2;0;4525;0;0;0;0;3;0;2838;0;0;0;0;4;0;3448;0;0;0;0;5;0;9634;2;0;0;0;0;0;6;0;6713;2;0;0;0;0;0;7;0;6442;0;0;0;0;8;0;6337;0;0;0;0;9;0;3403;0;0;0;0
27.12.17;20:15:00;1;504;9516;0;2;0;4525;0;0;0;0;3;0;2838;0;0;0;0;4;0;3448;0;0;0;0;5;0;9634;2;0;0;0;0;0;6;0;6713;2;0;0;0;0;0;7;0;6442;0;0;0;0;8;0;6337;0;0;0;0;9;0;3403;0;0;0;0
27.12.17;20:10:00;1;327;9459;0;2;0;4525;0;0;0;0;3;0;2838;0;0;0;0;4;0;3448;0;0;0;0;5;0;9634;2;0;0;0;0;0;6;0;6713;2;0;0;0;0;0;7;0;6442;0;0;0;0;8;0;6337;0;0;0;0;9;0;3403;0;0;0;0
27.12.17;20:05:00;1;274;9431;0;2;0;4525;0;0;0;0;3;0;2838;0;0;0;0;4;0;3448;0;0;0;0;5;0;9634;2;0;0;0;0;0;6;0;6713;2;0;0;0;0;0;7;0;6442;0;0;0;0;8;0;6337;0;0;0;0;9;0;3403;0;0;0;0
27.12.17;20:00:00;1;285;9408;0;2;0;4525;0;0;0;0;3;0;2838;0;0;0;0;4;0;3448;0;0;0;0;5;0;9634;2;0;0;0;0;0;6;0;6713;2;0;0;0;0;0;7;0;6442;0;0;0;0;8;0;6337;0;0;0;0;9;0;3403;0;0;0;0
27.12.17;19:55:00;1;663;9384;0;2;0;4525;0;0;0;0;3;0;2838;0;0;0;0;4;0;3448;0;0;0;0;5;0;9634;2;0;0;0;0;0;6;0;6713;2;0;0;0;0;0;7;0;6442;0;0;0;0;8;0;6337;0;0;0;0;9;0;3403;0;0;0;0
27.12.17;19:50:00;1;2970;9328;0;2;0;4525;0;0;0;0;3;0;2838;0;0;0;0;4;0;3448;0;0;0;0;5;0;9634;2;0;0;0;0;0;6;0;6713;2;0;0;0;0;0;7;0;6442;0;0;0;0;8;0;6337;0;0;0;0;9;0;3403;0;0;0;0
27.12.17;19:45:00;1;269;9093;0;2;0;4525;0;0;0;0;3;0;2838;0;0;0;0;4;0;3448;0;0;0;0;5;0;9634;2;0;0;0;0;0;6;0;6713;2;0;0;0;0;0;7;0;6442;0;0;0;0;8;0;6337;0;0;0;0;9;0;3403;0;0;0;0
27.12.17;19:40:00;1;283;9070;0;2;0;4525;0;0;0;0;3;0;2838;0;0;0;0;4;0;3448;0;0;0;0;5;0;9634;2;0;0;0;0;0;6;0;6713;2;0;0;0;0;0;7;0;6442;0;0;0;0;8;0;6337;0;0;0;0;9;0;3403;0;0;0;0
27.12.17;19:35:00;1;621;9028;0;2;0;4525;0;0;0;0;3;0;2838;0;0;0;0;4;0;3448;0;0;0;0;5;0;9634;2;0;0;0;0;0;6;0;6713;2;0;0;0;0;0;7;0;6442;0;0;0;0;8;0;6337;0;0;0;0;9;0;3403;0;0;0;0
27.12.17;19:30:00;1;262;8996;0;2;0;4525;0;0;0;0;3;0;2838;0;0;0;0;4;0;3448;0;0;0;0;5;0;9634;2;0;0;0;0;0;6;0;6713;2;0;0;0;0;0;7;0;6442;0;0;0;0;8;0;6337;0;0;0;0;9;0;3403;0;0;0;0
27.12.17;19:25:00;1;262;8974;0;2;0;4525;0;0;0;0;3;0;2838;0;0;0;0;4;0;3448;0;0;0;0;5;0;9634;2;0;0;0;0;0;6;0;6713;2;0;0;0;0;0;7;0;6442;0;0;0;0;8;0;6337;0;0;0;0;9;0;3403;0;0;0;0
27.12.17;19:20:00;1;917;8952;0;2;0;4525;0;0;0;0;3;0;2838;0;0;0;0;4;0;3448;0;0;0;0;5;0;9634;2;0;0;0;0;0;6;0;6713;2;0;0;0;0;0;7;0;6442;0;0;0;0;8;0;6337;0;0;0;0;9;0;3403;0;0;0;0
27.12.17;19:15:00;1;326;8896;0;2;0;4525;0;0;0;0;3;0;2838;0;0;0;0;4;0;3448;0;0;0;0;5;0;9634;2;0;0;0;0;0;6;0;6713;2;0;0;0;0;0;7;0;6442;0;0;0;0;8;0;6337;0;0;0;0;9;0;3403;0;0;0;0
27.12.17;19:10:00;1;292;8869;0;2;0;4525;0;0;0;0;3;0;2838;0;0;0;0;4;0;3448;0;0;0;0;5;0;9634;2;0;0;0;0;0;6;0;6713;2;0;0;0;0;0;7;0;6442;0;0;0;0;8;0;6337;0;0;0;0;9;0;3403;0;0;0;0
27.12.17;19:05:00;1;422;8843;0;2;0;4525;0;0;0;0;3;0;2838;0;0;0;0;4;0;3448;0;0;0;0;5;0;9634;2;0;0;0;0;0;6;0;6713;2;0;0;0;0;0;7;0;6442;0;0;0;0;8;0;6337;0;0;0;0;9;0;3403;0;0;0;0
27.12.17;19:00:00;1;595;8790;0;2;0;4525;0;0;0;0;3;0;2838;0;0;0;0;4;0;3448;0;0;0;0;5;0;9634;2;0;0;0;0;0;6;0;6713;2;0;0;0;0;0;7;0;6442;0;0;0;0;8;0;6337;0;0;0;0;9;0;3403;0;0;0;0
27.12.17;18:55:00;1;356;8748;0;2;0;4525;0;0;0;0;3;0;2838;0;0;0;0;4;0;3448;0;0;0;0;5;0;9634;2;0;0;0;0;0;6;0;6713;2;0;0;0;0;0;7;0;6442;0;0;0;0;8;0;6337;0;0;0;0;9;0;3403;0;0;0;0
27.12.17;18:50:00;1;401;8718;0;2;0;4525;0;0;0;0;3;0;2838;0;0;0;0;4;0;3448;0;0;0;0;5;0;9634;2;0;0;0;0;0;6;0;6713;2;0;0;0;0;0;7;0;6442;0;0;0;0;8;0;6337;0;0;0;0;9;0;3403;0;0;0;0
27.12.17;18:45:00;1;687;8689;0;2;0;4525;0;0;0;0;3;0;2838;0;0;0;0;4;0;3448;0;0;0;0;5;0;9634;2;0;0;0;0;0;6;0;6713;2;0;0;0;0;0;7;0;6442;0;0;0;0;8;0;6337;0;0;0;0;9;0;3403;0;0;0;0
27.12.17;18:40:00;1;326;8630;0;2;0;4525;0;0;0;0;3;0;2838;0;0;0;0;4;0;3448;0;0;0;0;5;0;9634;2;0;0;0;0;0;6;0;6713;2;0;0;0;0;0;7;0;6442;0;0;0;0;8;0;6337;0;0;0;0;9;0;3403;0;0;0;0
27.12.17;18:35:00;1;377;8602;0;2;0;4525;0;0;0;0;3;0;2838;0;0;0;0;4;0;3448;0;0;0;0;5;0;9634;2;0;0;0;0;0;6;0;6713;2;0;0;0;0;0;7;0;6442;0;0;0;0;8;0;6337;0;0;0;0;9;0;3403;0;0;0;0
27.12.17;18:30:00;1;580;8570;0;2;0;4525;0;0;0;0;3;0;2838;0;0;0;0;4;0;3448;0;0;0;0;5;0;9634;2;0;0;0;0;0;6;0;6713;2;0;0;0;0;0;7;0;6442;0;0;0;0;8;0;6337;0;0;0;0;9;0;3403;0;0;0;0
27.12.17;18:25:00;1;392;8507;0;2;0;4525;0;0;0;0;3;0;2838;0;0;0;0;4;0;3448;0;0;0;0;5;0;9634;2;0;0;0;0;0;6;0;6713;2;0;0;0;0;0;7;0;6442;0;0;0;0;8;0;6337;0;0;0;0;9;0;3403;0;0;0;0
27.12.17;18:20:00;1;379;8475;0;2;0;4525;0;0;0;0;3;0;2838;0;0;0;0;4;0;3448;0;0;0;0;5;0;9634;2;0;0;0;0;0;6;0;6713;2;0;0;0;0;0;7;0;6442;0;0;0;0;8;0;6337;0;0;0;0;9;0;3403;0;0;0;0
27.12.17;18:15:00;1;385;8443;0;2;0;4525;0;0;0;0;3;0;2838;0;0;0;0;4;0;3448;0;0;0;0;5;0;9634;2;0;0;0;0;0;6;0;6713;2;0;0;0;0;0;7;0;6442;0;0;0;0;8;0;6337;0;0;0;0;9;0;3403;0;0;0;0
27.12.17;18:10:00;1;1173;8411;0;2;0;4525;0;0;0;0;3;0;2838;0;0;0;0;4;0;3448;0;0;0;0;5;0;9634;2;0;0;0;0;0;6;0;6713;2;0;0;0;0;0;7;0;6442;0;0;0;0;8;0;6337;0;0;0;0;9;0;3403;0;0;0;0
27.12.17;18:05:00;1;357;8346;0;2;0;4525;0;0;0;0;3;0;2838;0;0;0;0;4;0;3448;0;0;0;0;5;0;9634;2;0;0;0;0;0;6;0;6713;2;0;0;0;0;0;7;0;6442;0;0;0;0;8;0;6337;0;0;0;0;9;0;3403;0;0;0;0
27.12.17;18:00:00;1;342;8317;0;2;0;4525;0;0;0;0;3;0;2838;0;0;0;0;4;0;3448;0;0;0;0;5;0;9634;2;0;0;0;0;0;6;0;6713;2;0;0;0;0;0;7;0;6442;0;0;0;0;8;0;6337;0;0;0;0;9;0;3403;0;0;0;0
27.12.17;17:55:00;1;522;8288;0;2;0;4525;0;0;0;0;3;0;2838;0;0;0;0;4;0;3448;0;0;0;0;5;0;9634;2;0;0;0;0;0;6;0;6713;2;0;0;0;0;0;7;0;6442;0;0;0;0;8;0;6337;0;0;0;0;9;0;3403;0;0;0;0
27.12.17;17:50:00;1;319;8230;0;2;0;4525;0;0;0;0;3;0;2838;0;0;0;0;4;0;3448;0;0;0;0;5;0;9634;2;0;0;0;0;0;6;0;6713;2;0;0;0;0;0;7;0;6442;0;0;0;0;8;0;6337;0;0;0;0;9;0;3403;0;0;0;0
27.12.17;17:45:00;1;295;8204;0;2;0;4525;0;0;0;0;3;0;2838;0;0;0;0;4;0;3448;0;0;0;0;5;0;9634;2;0;0;0;0;0;6;0;6713;2;0;0;0;0;0;7;0;6442;0;0;0;0;8;0;6337;0;0;0;0;9;0;3403;0;0;0;0
27.12.17;17:40:00;1;286;8178;0;2;0;4525;0;0;0;0;3;0;2838;0;0;0;0;4;0;3448;0;0;0;0;5;0;9634;2;0;0;0;0;0;6;0;6713;2;0;0;0;0;0;7;0;6442;0;0;0;0;8;0;6337;0;0;0;0;9;0;3403;0;0;0;0
27.12.17;17:35:00;1;669;8154;0;2;0;4525;0;0;0;0;3;0;2838;0;0;0;0;4;0;3448;0;0;0;0;5;0;9634;2;0;0;0;0;0;6;0;6713;2;0;0;0;0;0;7;0;6442;0;0;0;0;8;0;6337;0;0;0;0;9;0;3403;0;0;0;0
27.12.17;17:30:00;1;1959;8101;0;2;0;4525;0;0;0;0;3;0;2838;0;0;0;0;4;0;3448;0;0;0;0;5;0;9634;2;0;0;0;0;0;6;0;6713;2;0;0;0;0;0;7;0;6442;0;0;0;0;8;0;6337;0;0;0;0;9;0;3403;0;0;0;0
27.12.17;17:25:00;1;1402;7922;0;2;0;4525;0;0;0;0;3;0;2838;0;0;0;0;4;0;3448;0;0;0;0;5;0;9634;2;0;0;0;0;0;6;0;6713;2;0;0;0;0;0;7;0;6442;0;0;0;0;8;0;6337;0;0;0;0;9;0;3403;0;0;0;0
27.12.17;17:20:00;1;469;7848;0;2;0;4525;0;0;0;0;3;0;2838;0;0;0;0;4;0;3448;0;0;0;0;5;0;9634;2;0;0;0;0;0;6;0;6713;2;0;0;0;0;0;7;0;6442;0;0;0;0;8;0;6337;0;0;0;0;9;0;3403;0;0;0;0
27.12.17;17:15:00;1;507;7798;0;2;0;4525;0;0;0;0;3;0;2838;0;0;0;0;4;0;3448;0;0;0;0;5;0;9634;2;0;0;0;0;0;6;0;6713;2;0;0;0;0;0;7;0;6442;0;0;0;0;8;0;6337;0;0;0;0;9;0;3403;0;0;0;0
27.12.17;17:10:00;1;379;7768;0;2;0;4525;0;0;0;0;3;0;2838;0;0;0;0;4;0;3448;0;0;0;0;5;0;9634;2;0;0;0;0;0;6;0;6713;2;0;0;0;0;0;7;0;6442;0;0;0;0;8;0;6337;0;0;0;0;9;0;3403;0;0;0;0
27.12.17;17:05:00;1;477;7735;0;2;0;4525;0;0;0;0;3;0;2838;0;0;0;0;4;0;3448;0;0;0;0;5;0;9634;2;0;0;0;0;0;6;0;6713;2;0;0;0;0;0;7;0;6442;0;0;0;0;8;0;6337;0;0;0;0;9;0;3403;0;0;0;0
27.12.17;17:00:00;1;866;7695;0;2;0;4525;0;0;0;0;3;0;2838;0;0;0;0;4;0;3448;0;0;0;0;5;0;9634;2;0;0;0;0;0;6;0;6713;2;0;0;0;0;0;7;0;6442;0;0;0;0;8;0;6337;0;0;0;0;9;0;3403;0;0;0;0
27.12.17;16:55:00;1;426;7627;0;2;0;4525;0;0;0;0;3;0;2838;0;0;0;0;4;0;3448;0;0;0;0;5;0;9634;2;0;0;0;0;0;6;0;6713;2;0;0;0;0;0;7;0;6442;0;0;0;0;8;0;6337;0;0;0;0;9;0;3403;0;0;0;0
27.12.17;16:50:00;1;443;7591;0;2;0;4525;0;0;0;0;3;0;2838;0;0;0;0;4;0;3448;0;0;0;0;5;0;9634;2;0;0;0;0;0;6;0;6713;2;0;0;0;0;0;7;0;6442;0;0;0;0;8;0;6337;0;0;0;0;9;0;3403;0;0;0;0
27.12.17;16:45:00;1;649;7554;0;2;0;4525;0;0;0;0;3;0;2838;0;0;0;0;4;0;3448;0;0;0;0;5;0;9634;2;0;0;0;0;0;6;0;6713;2;0;0;0;0;0;7;0;6442;0;0;0;0;8;0;6337;0;0;0;0;9;0;3403;0;0;0;0
27.12.17;16:40:00;1;515;7483;0;2;0;4525;0;0;0;0;3;0;2838;0;0;0;0;4;0;3448;0;0;0;0;5;0;9634;2;0;0;0;0;0;6;0;6713;2;0;0;0;0;0;7;0;6442;0;0;0;0;8;0;6337;0;0;0;0;9;0;3403;0;0;0;0
27.12.17;16:35:00;1;478;7441;0;2;0;4525;0;0;0;0;3;0;2838;0;0;187;8;4;0;3448;0;0;0;0;5;0;9634;2;0;0;0;0;0;6;0;6713;2;0;0;0;0;0;7;0;6442;0;0;0;0;8;0;6337;0;0;0;0;9;0;3403;0;0;0;0
27.12.17;16:30:00;1;458;7401;0;2;0;4525;6;0;264;9;3;0;2838;6;0;295;12;4;0;3448;0;0;0;0;5;0;9634;2;0;0;0;0;0;6;0;6713;2;0;0;0;0;0;7;0;6442;0;0;0;0;8;0;6337;0;0;0;0;9;0;3403;0;0;0;0
27.12.17;16:25:00;1;848;7362;0;2;0;4525;6;0;298;9;3;0;2838;6;0;336;12;4;0;3448;0;0;63;6;5;0;9634;2;0;0;0;0;0;6;0;6713;2;0;0;0;0;0;7;0;6442;0;0;0;0;8;0;6337;0;0;0;0;9;0;3403;0;0;0;0
27.12.17;16:20:00;1;484;7295;0;2;0;4525;6;0;324;9;3;0;2838;6;0;391;12;4;0;3448;1;0;95;7;5;0;9634;2;0;1;192;190;12;6;0;6713;1;2;0;44;67;8;7;0;6442;0;0;0;0;8;0;6337;0;0;0;0;9;0;3403;0;0;0;0
27.12.17;16:15:00;1;533;7252;0;2;0;4525;6;0;356;9;3;0;2838;6;1;419;13;4;0;3448;1;0;131;8;5;0;9634;23;0;0;386;416;19;6;0;6713;23;5;3;180;491;18;7;0;6442;0;0;185;8;8;0;6337;0;0;228;10;9;0;3403;2;0;284;9
27.12.17;16:10:00;1;1039;7208;0;2;0;4525;6;0;383;10;3;0;2838;6;2;457;13;4;0;3448;1;0;176;8;5;0;9634;26;0;0;419;576;20;6;0;6713;23;4;3;204;557;18;7;0;6442;6;0;347;13;8;0;6337;6;0;352;12;9;0;3403;6;0;372;9
27.12.17;16:05:00;1;1490;7139;0;2;0;4525;6;0;399;10;3;1;2838;6;3;486;13;4;0;3448;1;0;207;8;5;11;9634;1;0;3;416;651;20;6;0;6713;23;5;4;372;579;19;7;0;6442;6;0;402;13;8;0;6337;6;0;407;13;9;0;3403;6;0;427;9
27.12.17;16:00:00;1;251;7030;0;2;1;4525;6;7;402;10;3;1;2838;6;3;495;13;4;0;3448;1;0;211;9;5;58;9633;1;8;15;396;630;21;6;0;6713;1;7;3;391;594;19;7;0;6442;6;2;433;13;8;0;6337;6;2;437;13;9;0;3403;6;0;495;9
27.12.17;15:55:00;1;202;7009;0;2;4;4525;6;9;415;10;3;1;2838;3;11;499;13;4;1;3448;3;1;214;9;5;100;9628;4;28;30;386;614;21;6;22;6713;1;2;6;474;454;20;7;0;6442;6;1;465;14;8;0;6337;6;0;486;13;9;2;3403;3;5;491;10
27.12.17;15:50:00;1;522;6992;0;2;17;4524;6;28;401;11;3;3;2838;6;9;526;13;4;4;3448;3;4;200;9;5;138;9619;4;48;43;386;614;21;6;57;6711;4;28;28;323;306;21;7;4;6442;3;15;453;14;8;8;6337;3;13;451;14;9;0;3403;6;6;529;10
27.12.17;15:45:00;1;192;6942;0;2;53;4523;4;84;370;11;3;4;2838;6;9;542;14;4;14;3448;3;15;198;9;5;164;9608;4;62;62;386;614;21;6;77;6706;4;29;27;324;305;21;7;11;6441;6;22;460;14;8;13;6336;6;22;462;14;9;2;3402;6;5;545;10
27.12.17;15:40:00;1;192;6926;0;2;74;4519;4;106;381;11;3;14;2838;6;27;511;14;4;32;3446;3;34;198;9;5;196;9594;4;89;77;386;614;21;6;93;6699;4;42;39;323;306;21;7;47;6441;4;81;427;15;8;46;6335;4;82;421;14;9;5;3402;6;10;551;10
27.12.17;15:35:00;1;446;6910;0;2;87;4513;4;116;365;12;3;6;2837;6;12;554;14;4;43;3444;3;44;197;9;5;220;9577;4;100;86;386;614;21;6;94;6692;4;45;41;323;306;21;7;64;6437;4;96;405;15;8;64;6331;4;98;416;14;9;10;3402;6;17;532;10
27.12.17;15:30:00;1;192;6863;0;2;113;4505;4;150;368;12;3;54;2836;6;82;488;14;4;64;3441;3;67;198;10;5;275;9559;4;125;113;386;614;21;6;118;6683;4;48;45;323;306;21;7;95;6431;4;124;421;15;8;93;6326;4;125;422;14;9;0;3401;6;0;593;11
27.12.17;15:25:00;1;206;6847;0;2;164;4496;4;201;391;12;3;95;2832;4;136;494;15;4;115;3435;3;119;226;10;5;360;9536;4;173;156;394;614;21;6;182;6673;4;81;100;323;392;21;7;145;6424;4;181;419;15;8;146;6318;4;181;447;15;9;75;3401;4;104;465;11
27.12.17;15:20:00;1;236;6829;0;2;203;4483;4;239;388;12;3;118;2824;4;161;513;15;4;151;3426;5;157;231;10;5;424;9505;4;204;177;398;614;21;6;257;6657;4;101;166;323;556;21;7;196;6412;4;240;445;15;8;203;6306;4;243;446;15;9;108;3395;4;137;496;11
27.12.17;15:15:00;1;946;6809;0;2;205;4466;4;244;388;12;3;121;2815;4;163;520;15;4;152;3413;5;158;231;10;5;426;9470;4;203;179;388;614;21;6;263;6636;4;94;158;323;560;21;7;212;6395;4;248;445;15;8;211;6289;4;250;438;15;9;113;3386;4;145;525;12
27.12.17;15:10:00;1;216;6759;0;2;226;4449;4;265;390;12;3;135;2804;4;176;513;15;4;170;3401;5;176;236;10;5;479;9434;4;230;202;413;648;21;6;279;6614;4;103;174;323;566;21;7;239;6378;4;274;459;15;8;241;6272;4;272;456;15;9;124;3377;4;155;527;12
27.12.17;15:05:00;1;192;6741;0;2;297;4430;4;340;400;13;3;176;2793;4;222;525;15;4;211;3386;5;220;237;10;5;580;9394;4;285;244;408;643;22;6;344;6591;4;119;202;323;573;21;7;328;6358;4;373;480;16;8;327;6251;4;365;472;15;9;166;3366;4;197;517;12
27.12.17;15:00:00;1;481;6725;0;2;318;4405;4;359;403;13;3;190;2779;4;233;525;15;4;227;3369;5;237;236;10;5;610;9345;4;294;261;401;653;22;6;358;6562;4;123;209;323;571;21;7;375;6331;4;418;495;16;8;382;6225;4;421;486;15;9;189;3352;4;221;519;12
27.12.17;14:55:00;1;193;6679;0;2;281;4379;4;320;393;13;3;170;2763;4;214;518;15;4;207;3350;5;215;236;10;5;567;9294;4;286;234;412;628;22;6;330;6532;4;123;209;323;571;21;7;311;6300;4;361;492;16;8;314;6193;4;358;493;16;9;162;3337;4;196;539;12
27.12.17;14:50:00;1;193;6663;0;2;267;4355;4;308;397;13;3;158;2749;4;205;519;15;4;192;3333;5;200;236;10;5;544;9247;4;271;230;409;635;22;6;319;6504;4;118;200;323;569;21;7;321;6274;4;351;478;16;8;305;6167;4;350;474;16;9;155;3323;4;187;537;12
27.12.17;14:45:00;1;2727;6647;0;2;276;4333;4;317;400;14;3;162;2735;4;207;534;16;4;180;3317;5;187;236;11;5;541;9202;4;273;232;408;615;22;6;326;6478;4;119;193;323;570;21;7;323;6247;4;366;491;17;8;321;6141;4;360;474;16;9;165;3310;4;199;537;13
27.12.17;14:40:00;1;478;6414;0;2;229;4310;4;269;389;14;3;137;2722;4;179;521;16;4;158;3302;5;164;235;11;5;490;9156;4;241;206;408;616;22;6;295;6450;4;136;219;323;566;21;7;279;6220;4;320;479;17;8;282;6114;4;317;483;16;9;142;3297;4;175;526;13
27.12.17;14:35:00;1;214;6367;0;2;196;4290;4;234;380;14;3;116;2710;4;160;504;16;4;138;3288;5;144;227;11;5;439;9115;4;209;183;398;614;22;6;264;6426;4;89;149;323;562;21;7;216;6196;4;253;475;17;8;215;6090;4;253;454;17;9;108;3284;4;139;500;13
27.12.17;14:30:00;1;275;6349;0;2;204;4274;4;244;387;14;3;121;2700;4;164;503;16;4;149;3277;5;155;228;11;5;459;9079;4;216;195;411;625;22;6;307;6404;4;109;153;415;567;21;7;214;6178;4;242;437;17;8;210;6072;4;246;440;17;9;106;3275;4;138;505;13
27.12.17;14:25:00;1;301;6325;0;2;217;4257;4;260;398;15;3;132;2690;4;172;495;16;4;166;3264;5;173;235;11;5;479;9040;4;232;202;411;642;23;6;368;6378;4;182;198;585;564;21;7;228;6160;4;272;448;18;8;227;6054;4;266;447;17;9;118;3266;4;150;505;14
27.12.17;14:20:00;1;542;6286;0;2;245;4239;4;286;396;15;3;146;2679;4;190;515;17;4;188;3250;5;196;234;12;5;528;9000;4;256;223;415;643;23;6;397;6348;4;200;225;578;568;22;7;262;6141;4;301;470;18;8;252;6035;4;297;463;18;9;128;3256;4;163;531;14
27.12.17;14:15:00;1;277;6244;0;2;310;4218;4;354;405;16;3;190;2667;4;233;513;17;4;245;3235;5;255;238;12;5;635;8956;4;308;270;405;676;23;6;482;6314;4;258;281;587;572;22;7;332;6119;4;371;470;18;8;323;6014;4;363;486;18;9;169;3246;4;205;528;15
27.12.17;14:10:00;1;260;6221;0;2;359;4193;4;403;411;17;3;219;2651;4;263;500;17;4;289;3214;5;301;238;12;5;708;8902;4;349;303;417;659;23;6;536;6273;4;259;277;582;572;22;7;397;6091;4;437;485;19;8;390;5987;4;437;490;18;9;206;3232;4;241;518;15
27.12.17;14:05:00;1;518;6199;0;2;367;4163;4;416;415;17;3;231;2633;4;275;508;18;4;303;3190;5;315;240;13;5;732;8843;4;357;313;420;670;24;6;552;6229;4;279;297;583;578;22;7;439;6059;4;486;474;19;8;436;5955;4;480;480;19;9;229;3214;4;265;523;16
27.12.17;14:00:00;1;245;6146;0;2;379;4132;4;422;403;18;3;231;2614;4;276;497;18;4;306;3165;5;319;239;13;5;742;8782;4;369;317;417;675;24;6;570;6182;4;280;298;596;569;22;7;459;6022;4;512;476;20;8;464;5919;4;504;479;19;9;243;3195;4;284;517;16
27.12.17;13:55:00;1;191;6126;0;2;486;4100;4;535;411;19;3;298;2595;4;347;508;19;4;366;3140;5;381;240;13;5;938;8718;4;467;397;418;681;24;6;692;6135;4;357;376;585;573;22;7;581;5984;4;638;478;20;8;568;5880;4;613;482;20;9;299;3175;4;340;531;17
27.12.17;13:50:00;1;192;6110;0;2;1329;4060;4;1414;423;21;3;842;2570;4;913;533;20;4;717;3109;5;747;261;14;5;2471;8638;4;1296;1074;437;711;25;6;1793;6074;4;902;899;605;585;23;7;1766;5936;4;1860;489;20;8;1761;5833;4;1849;496;20;9;963;3150;4;1033;538;18
27.12.17;13:45:00;1;582;6094;0;2;1787;3956;4;1891;422;22;3;1142;2504;4;1226;538;20;4;949;3052;5;989;253;14;5;3375;8430;4;1806;1494;438;706;25;6;2550;5919;4;1313;1278;616;591;23;7;2691;5795;4;2811;499;21;8;2615;5693;4;2746;490;20;9;1424;3074;4;1519;551;19